Wind_Speed
18 19 19 20 20 21 21 22 22 22 23 24 25 25 26 26 27 28 29 30 30 31 31 32 32 34 35 37 38 38 39 39 38 38 38 38 37 36
18 19 19 20 20 21 20 21 22 23 24 25 25 25 25 26 27 28 29 30 31 31 33 33 33 34 35 37 38 38 39 40 40 39 39 39 39 39
18 19 18 19 20 21 21 22 23 24 24 25 25 26 27 27 27 28 29 30 31 32 33 33 33 34 35 37 38 38 38 38 38 39 40 40 40 40
19 19 19 20 20 21 21 22 23 24 25 26 26 28 28 28 28 29 30 30 31 32 32 32 33 33 34 36 36 37 37 38 37 39 40 40 40 40
19 20 20 20 20 21 22 23 24 24 25 26 27 28 28 28 29 29 30 30 31 31 31 31 31 32 32 33 35 36 36 37 37 37 38 39 40 41
19 20 20 20 20 21 22 22 23 24 25 26 27 28 28 29 29 29 29 30 30 30 30 30 31 31 31 31 33 35 35 36 37 38 39 40 40 41
18 18 19 19 19 20 21 22 23 24 25 26 27 27 27 28 28 28 29 29 29 29 30 30 30 31 31 32 33 34 35 36 37 38 39 40 41 41
17 18 19 20 19 20 20 22 23 24 24 25 26 26 26 27 27 28 29 29 28 28 28 29 29 30 30 30 31 32 34 35 36 37 38 40 40 41
17 18 19 20 20 20 20 21 22 23 23 24 25 25 26 26 27 27 27 27 27 27 28 28 28 29 29 30 30 31 32 33 34 35 37 38 40 41
18 18 18 19 20 19 19 20 21 21 22 23 23 24 25 25 26 26 26 26 26 27 27 27 27 28 28 29 29 30 31 31 32 34 35 36 38 39
18 18 18 19 19 19 20 20 20 21 21 21 22 22 23 23 24 25 25 24 24 25 26 26 26 26 26 28 28 29 30 31 32 32 33 35 36 37
18 18 17 18 18 18 18 18 18 18 19 20 20 21 22 23 23 23 23 24 24 25 25 25 26 26 26 27 28 29 29 30 30 31 32 33 34 36
17 17 17 17 17 16 17 18 18 19 19 20 20 21 22 23 23 24 24 24 24 25 25 26 26 26 26 26 26 27 28 28 29 30 30 31 32 34
16 16 15 15 15 16 16 18 18 19 19 19 20 21 22 22 22 23 24 24 24 25 25 26 26 26 26 26 26 26 27 28 29 30 30 31 31 32
15 15 15 15 15 16 16 17 17 18 19 19 20 20 21 22 23 23 24 24 25 25 26 26 27 27 27 26 26 27 28 29 29 30 30 31 31 32
14 15 14 15 15 16 17 17 17 17 18 19 19 20 21 22 23 23 24 25 25 25 26 26 27 28 28 28 28 28 29 29 29 29 29 29 29 29
14 14 15 15 15 16 16 16 17 17 18 19 19 20 21 22 23 25 25 26 26 26 26 26 27 28 28 28 29 29 29 28 29 29 29 29 29 28
14 14 15 15 16 16 17 17 17 17 18 19 21 21 22 23 24 25 25 26 26 26 26 27 27 27 28 28 28 28 28 28 28 29 29 30 29 29
14 15 16 16 17 17 17 17 17 18 19 21 22 23 23 24 25 25 26 26 26 25 26 26 26 26 27 26 26 26 27 27 27 27 28 28 28 28
15 16 16 17 17 17 17 18 18 19 21 22 23 23 23 24 25 25 25 26 26 25 25 25 26 26 26 25 24 24 25 25 26 26 26 26 27 28
17 17 17 17 18 18 19 19 20 21 22 23 23 24 24 25 25 25 25 26 26 26 25 25 25 25 24 24 24 24 23 23 24 24 24 25 25 25
18 18 17 18 19 20 20 21 22 23 23 24 24 24 24 25 25 25 25 26 26 26 25 25 25 24 23 23 23 22 22 22 22 22 22 23 23 24
19 19 19 19 20 21 21 22 23 23 24 24 24 24 24 24 25 25 25 26 26 25 24 24 23 22 22 22 22 21 21 20 20 20 20 20 21 21
Wind_Direction
267 266 266 268 269 268 266 265 264 265 266 267 269 269 269 269 270 270 271 271 271 271 272 271 269 266 263 260 258 258 256 253 252 251 250 252 252 251
267 267 267 268 269 269 269 268 269 271 272 271 272 273 273 274 273 272 273 273 273 273 273 273 271 269 264 261 259 258 257 255 254 252 252 251 251 251
271 270 270 271 272 272 272 272 273 274 274 274 275 275 275 275 275 275 275 276 275 274 275 274 273 271 266 262 260 258 258 256 254 252 252 252 252 252
274 272 273 273 271 272 271 271 272 273 274 274 275 276 277 277 277 277 278 279 277 276 276 276 274 272 267 262 260 259 258 258 256 254 252 253 253 254
277 275 274 276 275 275 273 272 273 274 274 276 277 277 277 277 278 280 281 281 278 277 277 276 274 272 269 264 262 261 260 258 257 256 254 254 254 255
279 277 276 277 277 276 274 274 275 276 276 278 280 280 279 279 280 280 281 281 279 279 278 276 275 273 269 267 265 262 260 259 257 257 257 256 255 255
282 279 278 278 277 278 278 277 277 276 278 281 283 283 281 281 281 281 282 283 282 280 279 278 276 273 271 269 268 264 261 260 258 257 257 257 255 254
286 283 280 280 279 281 280 281 281 281 282 283 284 284 283 282 282 282 283 283 283 281 281 280 279 276 273 271 269 266 264 262 260 258 256 256 255 255
290 288 285 285 285 285 285 286 285 285 285 286 287 287 286 285 285 284 285 285 283 282 282 282 280 277 275 273 272 270 266 264 262 259 256 255 254 254
292 291 289 288 289 290 290 291 289 288 288 289 290 290 290 288 288 288 287 287 285 284 284 284 282 279 276 275 273 272 269 266 263 259 258 257 256 255
296 294 292 293 292 293 294 295 293 292 292 293 294 294 295 295 293 290 288 288 288 286 284 285 284 282 279 277 274 272 269 266 264 262 261 260 257 255
298 297 295 294 295 295 296 298 298 298 298 298 297 296 296 296 296 294 291 289 289 287 285 286 286 284 283 281 277 274 271 268 266 264 262 261 259 255
300 300 298 295 296 298 299 301 301 301 300 301 300 300 300 299 299 298 296 292 291 290 287 286 286 285 285 283 281 276 272 269 267 266 265 263 261 257
303 301 301 301 302 303 304 305 305 304 304 303 303 303 303 303 304 304 301 298 295 293 292 289 288 288 287 286 284 280 277 273 269 266 265 264 261 259
304 304 306 307 308 309 309 310 310 309 309 307 306 306 305 306 307 305 304 301 297 295 294 292 291 290 289 288 286 283 280 276 273 269 267 264 261 259
307 307 307 308 307 309 310 311 312 312 311 309 308 308 308 308 308 308 307 306 302 297 295 293 292 291 289 288 287 285 281 277 274 271 268 267 264 261
309 310 311 311 312 313 314 316 316 314 314 314 313 311 310 310 310 310 309 308 306 302 298 295 295 292 289 287 286 284 281 278 274 272 269 267 266 265
309 311 311 310 312 313 314 315 315 315 315 316 316 313 312 312 312 312 311 310 309 306 302 299 297 294 291 289 287 284 281 278 275 272 269 267 265 263
312 312 312 312 312 313 314 315 316 316 317 317 317 314 313 313 313 313 313 313 312 309 306 303 301 299 296 292 289 285 282 279 277 274 271 268 265 263
311 313 314 312 311 311 313 314 315 316 317 318 317 316 315 315 315 315 315 315 314 312 309 306 305 303 301 297 292 288 285 283 280 277 273 269 267 264
308 310 311 311 311 311 312 313 315 316 317 317 317 317 318 318 318 317 316 317 316 313 311 309 307 305 304 301 296 292 289 286 282 280 275 270 267 265
304 306 308 309 310 311 312 313 314 315 317 318 317 318 319 319 319 319 319 318 318 316 313 311 309 307 306 304 300 295 293 289 285 283 278 273 268 265
302 302 304 307 308 310 310 311 313 314 316 318 318 318 319 321 321 321 320 319 319 317 315 313 312 310 310 307 303 299 295 292 289 285 282 278 271 266
Height
5787 5787 5787 5787 5787 5787 5787 5787 5787 5788 5788 5788 5787 5787 5786 5786 5786 5785 5785 5784 5784 5783 5783 5782 5782 5781 5781 5782 5783 5784 5786 5788 5790 5792 5795 5798 5800 5802
5781 5781 5782 5781 5781 5781 5781 5781 5781 5781 5781 5781 5781 5780 5780 5779 5778 5778 5777 5776 5776 5775 5774 5773 5772 5772 5771 5772 5773 5774 5776 5778 5780 5782 5784 5787 5789 5792
5776 5775 5775 5775 5775 5775 5775 5775 5775 5775 5774 5774 5774 5773 5772 5772 5771 5770 5769 5768 5767 5766 5765 5764 5762 5762 5761 5762 5763 5764 5766 5767 5769 5771 5774 5776 5779 5781
5770 5770 5770 5770 5770 5769 5769 5769 5769 5768 5768 5767 5766 5766 5765 5764 5763 5762 5760 5759 5758 5757 5756 5754 5753 5752 5752 5752 5753 5754 5755 5757 5758 5760 5763 5766 5768 5770
5764 5764 5764 5764 5763 5763 5763 5762 5762 5761 5760 5760 5759 5758 5757 5756 5754 5753 5752 5750 5749 5747 5746 5745 5744 5743 5742 5743 5743 5744 5746 5747 5748 5750 5752 5754 5757 5759
5759 5758 5758 5758 5757 5757 5756 5755 5755 5754 5754 5753 5751 5750 5749 5747 5746 5745 5743 5742 5740 5739 5737 5736 5735 5734 5734 5733 5734 5735 5736 5736 5738 5739 5741 5743 5745 5747
5753 5753 5752 5752 5751 5751 5750 5749 5748 5747 5746 5745 5744 5743 5741 5739 5738 5736 5735 5733 5732 5730 5729 5727 5726 5725 5724 5724 5724 5724 5725 5726 5727 5728 5730 5732 5734 5736
5749 5748 5747 5746 5746 5745 5744 5743 5742 5740 5739 5738 5736 5735 5733 5732 5730 5728 5727 5725 5724 5722 5720 5719 5717 5716 5715 5715 5714 5714 5715 5715 5716 5717 5718 5720 5722 5724
5744 5743 5742 5741 5740 5739 5738 5737 5735 5733 5732 5731 5729 5727 5725 5724 5722 5721 5719 5717 5715 5714 5712 5711 5709 5708 5707 5706 5705 5705 5704 5705 5705 5706 5707 5709 5710 5712
5740 5738 5737 5736 5735 5733 5732 5730 5728 5727 5725 5724 5722 5720 5718 5716 5714 5713 5711 5709 5707 5705 5704 5702 5700 5699 5698 5697 5696 5695 5694 5695 5695 5696 5696 5697 5699 5700
5735 5734 5732 5731 5729 5728 5726 5724 5722 5720 5718 5717 5715 5713 5711 5709 5707 5705 5703 5702 5700 5698 5696 5694 5693 5691 5690 5688 5687 5686 5685 5684 5685 5685 5686 5686 5687 5688
5731 5729 5727 5726 5724 5722 5720 5718 5716 5715 5713 5711 5709 5707 5705 5703 5700 5698 5696 5694 5692 5690 5688 5686 5685 5683 5681 5680 5678 5677 5676 5675 5675 5675 5675 5675 5676 5677
5726 5724 5722 5721 5719 5717 5715 5713 5711 5709 5707 5705 5703 5701 5699 5696 5694 5691 5689 5686 5684 5682 5680 5678 5677 5675 5673 5671 5669 5667 5666 5665 5665 5665 5665 5665 5665 5666
5722 5720 5718 5716 5715 5713 5711 5709 5706 5704 5702 5700 5697 5695 5693 5690 5687 5685 5682 5679 5677 5675 5672 5670 5668 5666 5664 5662 5661 5659 5657 5656 5655 5655 5655 5655 5655 5656
5718 5716 5715 5713 5711 5709 5707 5704 5702 5699 5697 5694 5692 5690 5687 5684 5681 5678 5675 5673 5670 5667 5664 5662 5660 5658 5655 5653 5652 5650 5648 5647 5646 5645 5645 5645 5645 5645
5715 5713 5711 5709 5707 5705 5702 5700 5697 5695 5692 5689 5687 5684 5681 5678 5675 5672 5669 5666 5663 5660 5657 5654 5651 5649 5647 5644 5642 5640 5638 5637 5636 5635 5635 5635 5635 5635
5711 5710 5707 5705 5703 5701 5699 5696 5693 5690 5688 5685 5682 5679 5676 5673 5670 5666 5663 5659 5655 5652 5649 5646 5643 5640 5637 5635 5632 5630 5629 5627 5626 5626 5625 5625 5625 5626
5708 5706 5704 5702 5699 5697 5695 5692 5689 5687 5684 5681 5677 5674 5671 5668 5664 5660 5656 5652 5648 5644 5641 5637 5634 5631 5628 5626 5623 5621 5619 5618 5617 5616 5615 5616 5616 5617
5704 5702 5700 5698 5695 5693 5690 5688 5685 5682 5679 5676 5673 5669 5665 5661 5658 5654 5650 5646 5641 5637 5633 5629 5625 5622 5619 5617 5614 5611 5610 5608 5607 5606 5606 5606 5607 5608
5700 5698 5696 5694 5691 5689 5687 5684 5681 5678 5675 5671 5667 5664 5660 5656 5652 5648 5643 5639 5635 5631 5626 5622 5618 5614 5611 5608 5606 5603 5601 5599 5598 5597 5596 5596 5597 5598
5696 5694 5692 5689 5687 5685 5682 5679 5676 5673 5670 5666 5662 5658 5654 5650 5646 5642 5637 5633 5628 5624 5620 5616 5612 5608 5604 5600 5598 5596 5594 5591 5589 5588 5587 5587 5588 5589
5692 5690 5688 5685 5683 5680 5678 5675 5671 5668 5664 5660 5656 5652 5648 5644 5640 5636 5631 5627 5622 5618 5613 5609 5605 5601 5597 5594 5591 5588 5586 5584 5582 5581 5580 5580 5580 5581
5687 5685 5683 5681 5678 5675 5672 5669 5666 5662 5659 5655 5651 5647 5643 5639 5634 5630 5625 5620 5616 5611 5607 5603 5598 5595 5591 5587 5584 5582 5579 5577 5576 5574 5574 5573 5573 5573